Погода в Красноярске

Россия / Красноярский край     56°00′38″N   92°51′09″E
темп.,
°C
ветер,
м/с
пор.,
м/с
влажн.,
%
обл.,
%
осадки,
мм/ч
давл.,
гПа
погр.,
м
17 апреля, сб
сб1701:000сз2599100 4.1 1010230
04:00−1сз3892100 2.6 1013706
07:00−2сз4788100 2.9 1016756
10:00−4с4588100 0.3 1018671
13:00−2ссз4659100 0.6 10201557
16:00−2ссз345290 0.0 10221523
19:00−3ссз2365100 0.0 1023324
22:00−5сз1181100 0.0 102522
18 апреля, вс
вс1801:00−6ю11843 0.0 102528
04:00−7ююв22835 0.0 102462
07:00−5ююв2373100 0.0 1023154
10:00−1ю3655100 0.0 1020733
13:00+1юз5856100 0.0 10171370
16:00+2ююз5959100 0.0 10141507
19:000ююз3986100 0.1 1013562
22:00−1ююв2390100 0.0 101155
19 апреля, пн
пн1901:00−1юв2384100 0.0 100554
04:00+1ю51592100 0.4 998882
07:00+3юз61589100 1.7 9941081
10:00+1зюз11196752 0.6 9981933
13:00−3зюз12206692 0.8 10051501
16:00−3з101769100 0.1 10121612
19:00−5з7136793 0.3 10181425
22:00−6з5117050 0.1 10211334
20 апреля, вт
вт2001:00−7з497333 0.1 10231133
04:00−8з487482 0.0 10241128
07:00−8з486780 0.1 10261173
10:00−6з5648100 0.1 10261777
13:00−4з5642100 0.1 10252078
16:00−4зсз5646100 0.1 10251814
19:00−4зсз3556100 0.1 10251113
22:00−7юз12775 0.0 102647
21 апреля, ср
ср2101:00−8ююз11805 0.0 102640
04:00−9ююз12815 0.0 102641
07:00−7ю12675 0.0 1026131
10:00−2ююв124031 0.0 10261348
13:00−1всв2235100 0.0 10251945
16:000всв333690 0.1 10251799
19:00−1св4645100 0.1 1026578
22:00−3всв2568100 0.0 1028181